Voltar ao catálogo

EXPLORER 30

AtivoCiênciaLEO
NORAD 1738·PAYLOAD·🇺🇸 United States

Lançado Nov 19, 1965 de Wallops Flight Facility

Loading…

Próximas Passagens (próximas 24 horas)

TLE

AtualizadoSource: Space-Track

Época: Sep 14, 2026, 14:09 UTC

1 01738U 65093A   26257.58976255 -.00000027  00000-0  36313-4 0  9991
2 01738  59.7071 300.7164 0137199 115.7735 245.7535 14.41869114169286

Acompanhe EXPLORER 30 em tempo real com AllMySat

Download on the App Store